Regional Weather Roundup
Issued by NWS Cleveland, OH

Home | Current Version | Previous Version | Graphics & Text | Print | Product List | Glossary On
Versions: 1 2 3 4 5 6 7 8 9 10 11 12 13 14 15 16 17 18 19 20 21 22 23 24 25 26 27 28 29 30 31 32 33 34 35 36 37 38 39 40 41 42 43 44 45 46 47 48 49 50
000
ASUS41 KCLE 301110
RWRCLE
OHIO REGIONAL WEATHER ROUNDUP
NATIONAL WEATHER SERVICE WILMINGTON, OH
700 AM EDT MON MAY 30 2016

NOTE: "FAIR" INDICATES FEW OR NO CLOUDS BELOW 12,000 FEET WITH NO
SIGNIFICANT WEATHER AND/OR OBSTRUCTIONS TO VISIBILITY.

OHZ001>008-015>018-024>027-034-035-043-044-301200-
   NORTHWEST OHIO

CITY           SKY/WX    TMP DP  RH WIND       PRES   REMARKS
DEFIANCE       FAIR      63  56  78 CALM      30.03R
FINDLAY        FAIR      61  55  81 CALM      30.02R
TOLEDO EXPRESS FAIR      61  56  83 SW5       30.01R
TOLEDO EXEC    FAIR      63  55  75 SW5       30.02R
LIMA           FAIR      61  58  90 CALM      30.04R
$$

OHZ009>014-019>023-028>033-038-089-301200-
   NORTHEAST OHIO

CITY           SKY/WX    TMP DP  RH WIND       PRES   REMARKS
CLE-HOPKINS    MOCLDY    64  60  87 S5        30.03R
CLE-LAKEFRONT  FAIR      67  61  81 S3        30.00R
CUY CO. ARPT   PTSUNNY   64  63  94 CALM      30.01
LORAIN-ELYRIA  FAIR      61  58  90 CALM      30.02R
ASHTABULA      FAIR      62  61  96 CALM      30.01S
AKRON-CANTON   FAIR      62  60  93 SW3       30.03R
WOOSTER        FAIR      61  59  93 CALM      30.03S
MANSFIELD      FAIR      64  60  87 W5        30.04R
YOUNGSTOWN     PTSUNNY   63  62  97 CALM      30.02R FOG
$$

OHZ042-051>053-060>062-070>072-077>081-301200-
  SOUTHWEST OHIO

CITY           SKY/WX    TMP DP  RH WIND       PRES   REMARKS
CINC-COVINGTON MOCLDY    63  63 100 CALM      30.05R
CINC-LUNKEN    FAIR      61  61 100 S3        30.05R
HAMILTON       FAIR      63  61  93 CALM      30.05R FOG
DAYTON         FAIR      62  60  93 W5        30.06R
WRIGHT-PAT AFB PTCLDY    61  61 100 CALM      30.05R FOG
DAYTON GENERAL FAIR      65  61  87 CALM      30.05R
WILMINGTON     FAIR      64  62  93 W7        30.04S
$$

OHZ036-037-039>041-045>050-054>059-063>069-073>076-082>088-301200-
  CENTRAL AND SOUTHEAST OHIO

CITY           SKY/WX    TMP DP  RH WIND       PRES   REMARKS
COLUMBUS       CLOUDY    63  62  97 CALM      30.02R
OSU AIRPORT    FAIR      63  62  97 CALM      30.03R FOG
BOLTON FIELD   FAIR      63  63 100 W3        30.04R FOG
RICKENBACK AFB FAIR      62  62  99 CALM      30.02R FOG
NEWARK         FAIR      62  60  93 CALM      30.02S
MARION         FAIR      62  59  90 CALM      30.04R FOG
LANCASTER      FAIR      64  61  90 CALM      30.03R
ZANESVILLE     FAIR      65  61  87 CALM      30.03R
NEW PHILLY     FAIR      65  61  87 CALM      30.03R FOG
$$




USA.gov is the U.S. government's official web portal to all federal, state and local government web resources and services.